United States

Ashburn, VA Weather Archive

Below you will find the last 24 hours of weather readings for Ashburn VA

Ashburn VA Today's Weather Data

Observed at: Ashburn, VA

Hour Observerd Temp Pressure Visibility Humidity Dew Point Wind
01:00 Fair 68°F (20°C) 98.21 kPa 10 miles 100% 68°F (20°C) 4 mph SW 218.75°
00:00 Partly Cloudy 70°F (21.1°C) 98.21 kPa 10 miles 94% 68°F (20°C) 4 mph SW 218.75°
23:00 Partly Cloudy 70°F (21.1°C) 98.21 kPa 10 miles 94% 68°F (20°C) 3 mph S 173.75°23 mph
22:00 Fair 73°F (22.8°C) 98.21 kPa 10 miles 89% 69.8°F (21°C) 4 mph S 173.75°23 mph
21:00 Fair 73°F (22.8°C) 98.21 kPa 10 miles 89% 69.8°F (21°C) 4 mph S 173.75°23 mph
20:00 Fair 73°F (22.8°C) 98.21 kPa 10 miles 89% 69.8°F (21°C) 3 mph S 173.75°23 mph
19:00 Fair 81°F (27.2°C) 98.21 kPa 10 miles 70% 69.8°F (21°C) 5 mph SW 218.75°23 mph
18:00 Fair 81°F (27.2°C) 98.21 kPa 10 miles 70% 69.8°F (21°C) 5 mph SW 218.75°23 mph
17:00 Partly Cloudy 79°F (26.1°C) 98.21 kPa 10 miles 74% 69.8°F (21°C) 10 mph SW 218.75°18 mph
16:00 Light Rain 81°F (27.2°C) 98.21 kPa 10 miles 66% 68°F (20°C) 4 mph SW 218.75°18 mph
15:00 Fair 84°F (28.9°C) 98.21 kPa 10 miles 58% 68°F (20°C) 5 mph W 263.75°18 mph
14:00 Fair 81°F (27.2°C) 98.21 kPa 10 miles 66% 68°F (20°C) 10 mph SW 218.75°17 mph
13:00 Fair 81°F (27.2°C) 98.21 kPa 10 miles 66% 68°F (20°C) 10 mph SW 218.75°17 mph
12:00 Fair 79°F (26.1°C) 98.21 kPa 10 miles 70% 68°F (20°C) 5 mph S 173.75°
11:00 Fair 72°F (22.2°C) 98.21 kPa 10 miles 78% 64.4°F (18°C) 4 mph SW 218.75°
10:00 Fair 72°F (22.2°C) 98.21 kPa 10 miles 78% 64.4°F (18°C) 4 mph SW 218.75°
09:00 Partly Cloudy 64°F (17.8°C) 101.59 kPa 10 miles 94% 62.6°F (17°C) 6 mph SW 218.75°
08:00 Partly Cloudy 64°F (17.8°C) 101.59 kPa 10 miles 94% 62.6°F (17°C) 6 mph SW 218.75°
07:00 Fair 63°F (17.2°C) 101.59 kPa 10 miles 100% 62.6°F (17°C) 3 mph S 173.75°
06:00 Fair 63°F (17.2°C) 101.59 kPa 10 miles 100% 62.6°F (17°C) 3 mph E 83.75°
05:00 Fair 63°F (17.2°C) 101.59 kPa 7 miles 100% 62.6°F (17°C) 3 mph E 83.75°
04:00 Fair 63°F (17.2°C) 101.59 kPa 7 miles 100% 62.6°F (17°C) 3 mph NW 308.75°
03:00 Partly Cloudy 66°F (18.9°C) 101.59 kPa 10 miles 94% 64.4°F (18°C) 3 mph NW 308.75°
02:00 Mostly Cloudy 68°F (20°C) 101.59 kPa 10 miles 100% 68°F (20°C) 4 mph S 173.75°


Home | Earthquakes | About Us | Contact Us | Privacy

Copyright Friendly Forecast 2012 - 2021